Location: Newark
(39.9900°N, 9.6856°E)
Time: 07:09:12
(UTC+00:00)

N. Korean satellite - Visible Passes

Search period start: 17 November 2019 00:00
Search period end: 27 November 2019 00:00
Orbit: 456 x 506 km, 97.2° (Epoch: 16 November)

Date Brightness Start Highest point End Pass type
(mag) Time Alt. Az. Time Alt. Az. Time Alt. Az.
17 Nov 6.6 05:27:36 10° N 05:31:16 62° WNW 05:34:54 10° SSW visible
17 Nov 10.2 17:37:48 10° WSW 17:39:10 12° W 17:40:33 10° WNW visible
18 Nov 7.3 05:02:15 10° NNE 05:05:55 58° E 05:09:31 10° S visible
18 Nov 9.3 17:10:36 10° SSW 17:13:35 24° W 17:16:38 10° NW visible
19 Nov 9.0 04:37:16 10° NE 04:40:27 27° E 04:43:35 10° SSE visible
19 Nov 7.6 16:44:34 10° S 16:48:07 51° W 16:51:44 10° NNW visible
20 Nov 10.1 04:13:04 10° ENE 04:14:54 13° E 04:16:41 10° ESE visible
21 Nov 6.5 05:19:25 10° N 05:23:07 80° WNW 05:26:45 10° SSW visible
21 Nov 9.9 17:28:45 10° SW 17:30:54 15° W 17:33:06 10° NW visible
22 Nov 7.9 04:54:10 10° NNE 04:57:43 44° E 05:01:12 10° S visible
22 Nov 8.8 17:02:07 10° SSW 17:05:22 30° W 17:08:40 10° NNW visible
23 Nov 9.4 04:29:21 10° NE 04:32:13 21° E 04:35:02 10° SE visible
23 Nov 7.1 16:36:17 10° S 16:39:54 67° W 16:43:36 10° NNW visible
24 Nov 10.3 04:06:06 10° E 04:06:37 10° E 04:07:07 10° E visible
24 Nov 6.9 05:36:44 10° N 05:40:16 45° WNW 05:43:43 10° SSW visible
25 Nov 6.7 05:11:13 10° NNE 05:14:55 79° ESE 05:18:30 10° S visible
25 Nov 9.7 17:19:58 10° SW 17:22:37 19° W 17:25:19 10° NW visible
26 Nov 8.4 04:46:05 10° NNE 04:49:28 34° E 04:52:46 10° SSE visible
26 Nov 8.3 16:53:39 10° SSW 16:57:06 38° W 17:00:36 10° NNW visible
